Weather History for Naples, FL

Change the Weather History Date:

Wednesday, May 16, 2012

  Actual Average Record
Temperature  
Mean Temperature 76 °F 78 °F  
Max Temperature 81 °F 88 °F 94 °F (1974)
Min Temperature 70 °F 68 °F 58 °F (1977)
Degree Days  
Heating Degree Days 0 0  
Month to date heating degree days 0 0  
Since 1 July heating degree days 121 260  
Cooling Degree Days 11 13  
Month to date cooling degree days 221 192  
Year to date cooling degree days 1035 812  
Growing Degree Days 27 (Base 50)    
Moisture  
Dew Point 70 °F    
Average Humidity 80    
Maximum Humidity 93    
Minimum Humidity 67    
Precipitation  
Precipitation 0.15 in 0.07 in 4.53 in (1987)
Month to date precipitation 2.01 1.27  
Year to date precipitation 8.86 9.96  
Snow  
Snow 0.00 in - - ()
Month to date snowfall 0.0  
Since 1 July snowfall 0.0  
Snow Depth 0.00 in    
Sea Level Pressure  
Sea Level Pressure 29.98 in    
Wind  
Wind Speed 3 mph (ESE)    
Max Wind Speed 21 mph    
Max Gust Speed 25 mph    
Visibility 9 miles    
Events Rain , Thunderstorm    
T = Trace of Precipitation, MM = Missing Value Source: NWS Daily Summary

Daily Weather History Graph

Daily Weather History Graph

Search for Another Location

Airport:

Trip Planner

Search our weather history database for the weather conditions in past years. The results will help you decide how hot, cold, wet, or windy it might be!

Date:

Astronomy

May. 16, 2012 Rise Set
Actual Time 6:39 AM EDT 8:07 PM EDT
Civil Twilight 6:14 AM EDT 8:32 PM EDT
Nautical Twilight 5:44 AM EDT 9:02 PM EDT
Astronomical Twilight 5:13 AM EDT 9:33 PM EDT
Moon 3:48 AM EDT (5/16) 4:39 PM EDT (5/16)
Length of Visible Light 14h 17m
Length of Day
13h 27m
Waning Crescent, 16% of the Moon is Illuminated
May 16
Waning Crescent
May 20
New
May 28
First Quarter
Jun 4
Full
Jun 11
Last Quarter

Hourly Weather History & Observations

Time (EDT) Temp. Heat Index Dew Point Humidity Pressure Visibility Wind Dir Wind Speed Gust Speed Precip Events Conditions
12:53 AM 73.9 °F - 70.0 °F 87% 30.00 in 10.0 mi ENE 3.5 mph - N/A   Clear
1:53 AM 73.9 °F - 69.1 °F 85% 29.98 in 10.0 mi SE 3.5 mph - N/A   Clear
2:53 AM 73.0 °F - 70.0 °F 90% 29.98 in 10.0 mi Calm Calm - N/A   Clear
3:53 AM 73.0 °F - 70.0 °F 90% 29.97 in 10.0 mi Calm Calm - N/A   Clear
4:53 AM 73.0 °F - 71.1 °F 93% 29.97 in 10.0 mi SSE 5.8 mph - N/A   Clear
5:53 AM 73.9 °F - 70.0 °F 87% 29.98 in 10.0 mi ENE 4.6 mph - N/A   Clear
6:53 AM 73.9 °F - 71.1 °F 91% 29.99 in 10.0 mi South 6.9 mph - N/A   Scattered Clouds
7:53 AM 73.0 °F - 69.1 °F 87% 29.98 in 8.0 mi ESE 5.8 mph - 0.00 in Rain Light Rain
8:53 AM 73.0 °F - 70.0 °F 90% 30.00 in 10.0 mi Calm Calm - 0.00 in   Overcast
9:53 AM 73.9 °F - 71.1 °F 91% 30.03 in 8.0 mi NNW 5.8 mph - 0.00 in   Overcast
10:53 AM 75.0 °F - 72.0 °F 90% 30.02 in 7.0 mi Calm Calm - 0.00 in Rain Light Rain
11:53 AM 75.9 °F - 72.0 °F 87% 30.02 in 8.0 mi East 4.6 mph - 0.00 in   Overcast
12:53 PM 78.1 °F - 70.0 °F 76% 30.02 in 10.0 mi East 4.6 mph - N/A   Scattered Clouds
1:53 PM 80.1 °F 83.2 °F 70.0 °F 71% 29.99 in 10.0 mi SE 5.8 mph - N/A   Scattered Clouds
2:53 PM 80.1 °F 82.7 °F 68.0 °F 67% 29.98 in 10.0 mi ESE 4.6 mph - N/A   Partly Cloudy
3:53 PM 81.0 °F 84.1 °F 69.1 °F 67% 29.96 in 10.0 mi SSE 6.9 mph - N/A   Clear
4:53 PM 81.0 °F 84.1 °F 69.1 °F 67% 29.94 in 10.0 mi SE 6.9 mph - N/A   Clear
5:53 PM 80.1 °F 83.2 °F 70.0 °F 71% 29.93 in 10.0 mi SSE 4.6 mph - N/A   Clear
6:53 PM 80.1 °F 82.9 °F 69.1 °F 69% 29.92 in 10.0 mi Calm Calm - N/A   Scattered Clouds
7:53 PM 79.0 °F - 70.0 °F 74% 29.94 in 10.0 mi SE 3.5 mph - N/A   Partly Cloudy
8:53 PM 78.1 °F - 71.1 °F 79% 29.95 in 10.0 mi Calm Calm - N/A   Clear
9:53 PM 78.1 °F - 72.0 °F 81% 29.96 in 10.0 mi NNE 3.5 mph - N/A   Overcast
10:53 PM 75.9 °F - 72.0 °F 87% 29.97 in 10.0 mi ENE 3.5 mph - N/A   Mostly Cloudy
11:37 PM 75.2 °F - 71.6 °F 89% 29.97 in 10.0 mi Calm Calm - N/A Thunderstorm Thunderstorm
11:53 PM 71.1 °F - 68.0 °F 90% 29.96 in 1.8 mi Calm Calm - 0.12 in Rain , Thunderstorm Heavy Rain